| time (UTC) | temp F | wind direction | speed MPH | gust MPH | rain 1hr in | rain 24hr in | rain mn in | humidity % | barometer mb |
| 20260902164104 | 69 | 227 | 9.0 | 12.0 | 0.00 | 0.01 | 0.01 | 66 | 1020.0 |
| 20260902163954 | 69 | 223 | 8.0 | 10.0 | 0.00 | 0.01 | 0.01 | 67 | 1020.0 |
| 20260902163432 | 0 | 199 | 8.0 | 10.0 | 0.00 | 0.01 | 0.01 | 1020.0 | |
| 20260902162605 | 69 | 196 | 8.0 | 13.0 | 0.00 | 0.01 | 0.01 | 67 | 1020.1 |
| 20260902162104 | 69 | 227 | 7.0 | 13.0 | 0.00 | 0.01 | 0.01 | 67 | 1020.1 |
| 20260902161605 | 69 | 224 | 6.0 | 11.0 | 0.00 | 0.01 | 0.01 | 67 | 1020.1 |
| 20260902161103 | 69 | 183 | 6.0 | 11.0 | 0.00 | 0.01 | 0.01 | 67 | 1020.2 |
| 20260902160617 | 70 | 216 | 4.0 | 9.0 | 0.00 | 0.01 | 0.01 | 67 | 1020.3 |
| 20260902160108 | 70 | 221 | 5.0 | 12.0 | 0.00 | 0.01 | 0.01 | 66 | 1020.3 |
| 20260902155953 | 70 | 227 | 7.0 | 13.0 | 0.00 | 0.01 | 0.01 | 66 | 1020.2 |
| 20260902155449 | 70 | 213 | 8.0 | 13.0 | 0.00 | 0.01 | 0.01 | 66 | 1020.3 |
| 20260902154604 | 70 | 227 | 7.0 | 13.0 | 0.00 | 0.01 | 0.01 | 66 | 1020.3 |
| 20260902154445 | 70 | 234 | 8.0 | 14.0 | 0.00 | 0.01 | 0.01 | 65 | 1020.3 |
| 20260902153945 | 70 | 234 | 8.0 | 14.0 | 0.00 | 0.01 | 0.01 | 65 | 1020.2 |
| 20260902153104 | 70 | 193 | 6.0 | 12.0 | 0.00 | 0.01 | 0.01 | 65 | 1020.3 |
| 20260902152605 | 70 | 221 | 4.0 | 7.0 | 0.00 | 0.01 | 0.01 | 66 | 1020.2 |
| 20260902152348 | 70 | 183 | 5.0 | 7.0 | 0.00 | 0.01 | 0.01 | 66 | 1020.4 |
| 20260902152235 | 70 | 186 | 4.0 | 7.0 | 0.00 | 0.01 | 0.01 | 67 | 1020.2 |
| 20260902151104 | 70 | 197 | 4.0 | 7.0 | 0.00 | 0.01 | 0.01 | 65 | 1020.4 |
| 20260902150603 | 70 | 238 | 5.0 | 9.0 | 0.00 | 0.01 | 0.01 | 67 | 1020.5 |
| 20260902150113 | 69 | 234 | 6.0 | 9.0 | 0.00 | 0.01 | 0.01 | 68 | 1020.5 |
| 20260902145605 | 69 | 251 | 6.0 | 9.0 | 0.00 | 0.01 | 0.01 | 67 | 1020.6 |
| 20260902145105 | 69 | 244 | 5.0 | 11.0 | 0.00 | 0.01 | 0.01 | 68 | 1020.6 |
| 20260902144603 | 69 | 257 | 6.0 | 11.0 | 0.00 | 0.01 | 0.01 | 67 | 1020.6 |
| 20260902144104 | 69 | 206 | 6.0 | 11.0 | 0.00 | 0.01 | 0.01 | 67 | 1020.6 |
| 20260902144004 | 69 | 252 | 4.0 | 10.0 | 0.00 | 0.01 | 0.01 | 66 | 1020.6 |
| 20260902143103 | 69 | 283 | 5.0 | 10.0 | 0.00 | 0.01 | 0.01 | 65 | 1020.6 |
| 20260902142605 | 69 | 279 | 5.0 | 7.0 | 0.00 | 0.01 | 0.01 | 64 | 1020.6 |
| 20260902142103 | 70 | 248 | 4.0 | 12.0 | 0.00 | 0.01 | 0.01 | 64 | 1020.7 |
| 20260902141615 | 70 | 237 | 5.0 | 12.0 | 0.00 | 0.01 | 0.01 | 64 | 1020.6 |
| 20260902141102 | 70 | 251 | 6.0 | 10.0 | 0.00 | 0.01 | 0.01 | 63 | 1020.6 |
| 20260902140602 | 70 | 235 | 4.0 | 12.0 | 0.00 | 0.01 | 0.01 | 63 | 1020.5 |
| 20260902140115 | 70 | 288 | 4.0 | 12.0 | 0.00 | 0.01 | 0.01 | 62 | 1020.6 |
| 20260902135603 | 70 | 252 | 5.0 | 11.0 | 0.00 | 0.01 | 0.01 | 63 | 1020.7 |
| 20260902135103 | 70 | 252 | 4.0 | 11.0 | 0.00 | 0.01 | 0.01 | 62 | 1020.6 |
| 20260902134602 | 71 | 235 | 7.0 | 12.0 | 0.00 | 0.01 | 0.01 | 61 | 1020.6 |
| 20260902134103 | 71 | 237 | 7.0 | 13.0 | 0.00 | 0.01 | 0.01 | 62 | 1020.6 |
| 20260902133603 | 71 | 221 | 8.0 | 13.0 | 0.00 | 0.01 | 0.01 | 60 | 1020.6 |
| 20260902133343 | 71 | 227 | 6.0 | 16.0 | 0.00 | 0.01 | 0.01 | 58 | 1020.6 |
| 20260902133230 | 71 | 203 | 8.0 | 12.0 | 0.00 | 0.01 | 0.01 | 59 | 1020.6 |
| 20260902132101 | 72 | 220 | 9.0 | 16.0 | 0.00 | 0.01 | 0.01 | 56 | 1020.6 |
| 20260902131946 | 73 | 261 | 7.0 | 14.0 | 0.00 | 0.01 | 0.01 | 57 | 1020.7 |
| 20260902131101 | 74 | 231 | 8.0 | 14.0 | 0.00 | 0.01 | 0.01 | 58 | 1020.5 |
| 20260902130601 | 73 | 213 | 8.0 | 14.0 | 0.00 | 0.01 | 0.01 | 55 | 1020.5 |
| 20260902130113 | 72 | 244 | 7.0 | 15.0 | 0.00 | 0.01 | 0.01 | 60 | 1020.5 |
| 20260902125603 | 72 | 241 | 9.0 | 15.0 | 0.00 | 0.01 | 0.01 | 57 | 1020.4 |
| 20260902125100 | 72 | 209 | 7.0 | 15.0 | 0.00 | 0.01 | 0.01 | 60 | 1020.4 |
| 20260902124601 | 72 | 234 | 6.0 | 15.0 | 0.00 | 0.01 | 0.01 | 59 | 1020.5 |
| 20260902124059 | 73 | 250 | 7.0 | 15.0 | 0.00 | 0.01 | 0.01 | 57 | 1020.4 |
| 20260902123601 | 74 | 286 | 8.0 | 15.0 | 0.00 | 0.01 | 0.01 | 55 | 1020.3 |
| 20260902123100 | 73 | 252 | 7.0 | 15.0 | 0.00 | 0.01 | 0.01 | 55 | 1020.5 |
| 20260902122600 | 73 | 209 | 10.0 | 16.0 | 0.00 | 0.01 | 0.01 | 59 | 1020.6 |
| 20260902122100 | 73 | 203 | 7.0 | 16.0 | 0.00 | 0.01 | 0.01 | 60 | 1020.6 |
| 20260902121949 | 73 | 228 | 10.0 | 15.0 | 0.00 | 0.01 | 0.01 | 61 | 1020.5 |
| 20260902121103 | 73 | 206 | 5.0 | 14.0 | 0.00 | 0.01 | 0.01 | 62 | 1020.4 |
| 20260902120602 | 71 | 180 | 9.0 | 14.0 | 0.00 | 0.01 | 0.01 | 65 | 1020.6 |
| 20260902120338 | 69 | 302 | 4.0 | 12.0 | 0.00 | 0.01 | 0.01 | 66 | 1020.7 |
| 20260902120229 | 70 | 250 | 6.0 | 12.0 | 0.00 | 0.01 | 0.01 | 66 | 1020.5 |
| 20260902115100 | 69 | 276 | 8.0 | 11.0 | 0.00 | 0.01 | 0.01 | 65 | 1020.8 |
| 20260902114941 | 70 | 305 | 5.0 | 13.0 | 0.00 | 0.01 | 0.01 | 65 | 1020.7 |
| 20260902114059 | 70 | 282 | 6.0 | 13.0 | 0.00 | 0.01 | 0.01 | 66 | 1020.8 |
| 20260902113558 | 70 | 199 | 4.0 | 10.0 | 0.00 | 0.01 | 0.01 | 66 | 1020.8 |
| 20260902113101 | 70 | 271 | 6.0 | 11.0 | 0.00 | 0.01 | 0.01 | 64 | 1020.8 |
| 20260902112558 | 70 | 250 | 8.0 | 12.0 | 0.00 | 0.01 | 0.01 | 62 | 1020.8 |
| 20260902112058 | 71 | 204 | 8.0 | 13.0 | 0.00 | 0.01 | 0.01 | 62 | 1020.8 |
| 20260902111837 | 73 | 207 | 6.0 | 13.0 | 0.00 | 0.01 | 0.01 | 61 | 1020.8 |
| 20260902111726 | 72 | 223 | 6.0 | 13.0 | 0.00 | 0.01 | 0.01 | 62 | 1020.8 |
| 20260902110944 | 72 | 244 | 6.0 | 13.0 | 0.00 | 0.01 | 0.01 | 64 | 1020.9 |
| 20260902110500 | 71 | 203 | 6.0 | 13.0 | 0.00 | 0.01 | 0.01 | 64 | 1020.8 |
| 20260902105557 | 71 | 206 | 5.0 | 9.0 | 0.00 | 0.01 | 0.01 | 66 | 1020.9 |
| 20260902105058 | 71 | 172 | 4.0 | 11.0 | 0.00 | 0.01 | 0.01 | 65 | 1020.9 |
| 20260902104557 | 70 | 243 | 5.0 | 11.0 | 0.00 | 0.01 | 0.01 | 67 | 1020.9 |
| 20260902104057 | 70 | 248 | 5.0 | 11.0 | 0.00 | 0.01 | 0.01 | 66 | 1020.8 |
| 20260902103830 | 70 | 290 | 6.0 | 11.0 | 0.00 | 0.01 | 0.01 | 67 | 1021.0 |
| 20260902103726 | 70 | 261 | 6.0 | 11.0 | 0.00 | 0.01 | 0.01 | 66 | 1021.0 |
| 20260902102558 | 71 | 279 | 7.0 | 12.0 | 0.00 | 0.01 | 0.01 | 66 | 1020.9 |
| 20260902102056 | 72 | 241 | 9.0 | 12.0 | 0.00 | 0.01 | 0.01 | 64 | 1021.0 |
| 20260902101556 | 72 | 203 | 4.0 | 11.0 | 0.00 | 0.01 | 0.01 | 64 | 1020.9 |
| 20260902101057 | 72 | 262 | 7.0 | 11.0 | 0.00 | 0.01 | 0.01 | 68 | 1020.8 |
| 20260902100557 | 71 | 265 | 5.0 | 10.0 | 0.00 | 0.01 | 0.01 | 69 | 1020.9 |
| 20260902100110 | 71 | 244 | 6.0 | 11.0 | 0.00 | 0.01 | 0.01 | 71 | 1020.9 |
| 20260902095932 | 70 | 302 | 5.0 | 11.0 | 0.00 | 0.01 | 0.01 | 71 | 1020.9 |
| 20260902095058 | 70 | 257 | 6.0 | 12.0 | 0.00 | 0.01 | 0.01 | 73 | 1021.0 |
| 20260902094556 | 69 | 258 | 6.0 | 12.0 | 0.00 | 0.01 | 0.01 | 73 | 1020.9 |
| 20260902094057 | 69 | 262 | 5.0 | 10.0 | 0.00 | 0.01 | 0.01 | 72 | 1021.1 |
| 20260902093555 | 68 | 283 | 6.0 | 11.0 | 0.00 | 0.01 | 0.01 | 74 | 1020.9 |
| 20260902093057 | 67 | 234 | 7.0 | 13.0 | 0.00 | 0.01 | 0.01 | 74 | 1020.8 |
| 20260902092556 | 68 | 240 | 9.0 | 13.0 | 0.00 | 0.01 | 0.01 | 73 | 1021.2 |
| 20260902092432 | 69 | 250 | 7.0 | 11.0 | 0.00 | 0.01 | 0.01 | 72 | 1021.2 |
| 20260902091606 | 68 | 272 | 5.0 | 12.0 | 0.00 | 0.01 | 0.01 | 75 | 1021.0 |
| 20260902091054 | 68 | 302 | 6.0 | 12.0 | 0.00 | 0.01 | 0.01 | 75 | 1021.0 |
| 20260902090554 | 67 | 217 | 7.0 | 12.0 | 0.00 | 0.01 | 0.01 | 76 | 1020.9 |
| 20260902090107 | 67 | 292 | 5.0 | 11.0 | 0.00 | 0.01 | 0.01 | 76 | 1020.9 |
| 20260902085931 | 67 | 261 | 5.0 | 11.0 | 0.00 | 0.01 | 0.01 | 77 | 1020.8 |
| 20260902085054 | 66 | 233 | 8.0 | 10.0 | 0.00 | 0.01 | 0.01 | 77 | 1020.8 |
| 20260902084555 | 65 | 202 | 6.0 | 10.0 | 0.00 | 0.01 | 0.01 | 79 | 1020.9 |
| 20260902084438 | 65 | 257 | 5.0 | 10.0 | 0.00 | 0.01 | 0.01 | 78 | 1020.8 |
| 20260902083555 | 65 | 214 | 6.0 | 11.0 | 0.00 | 0.01 | 0.01 | 80 | 1020.7 |
| 20260902083054 | 64 | 238 | 6.0 | 11.0 | 0.00 | 0.01 | 0.01 | 79 | 1020.7 |
| 20260902082553 | 64 | 244 | 5.0 | 11.0 | 0.00 | 0.01 | 0.01 | 79 | 1020.6 |
| 20260902082052 | 64 | 227 | 7.0 | 13.0 | 0.00 | 0.01 | 0.01 | 79 | 1020.6 |
| 20260902081554 | 64 | 233 | 7.0 | 13.0 | 0.00 | 0.01 | 0.01 | 80 | 1020.6 |
| 20260902081436 | 63 | 193 | 6.0 | 10.0 | 0.00 | 0.01 | 0.01 | 80 | 1020.6 |
| 20260902080944 | 63 | 224 | 5.0 | 10.0 | 0.00 | 0.01 | 0.01 | 80 | 1020.6 |
| 20260902080105 | 63 | 212 | 6.0 | 10.0 | 0.00 | 0.01 | 0.01 | 80 | 1020.6 |
| 20260902075554 | 63 | 214 | 4.0 | 10.0 | 0.00 | 0.01 | 0.01 | 80 | 1020.5 |
| 20260902075435 | 63 | 214 | 6.0 | 10.0 | 0.00 | 0.01 | 0.01 | 80 | 1020.4 |
| 20260902074554 | 63 | 244 | 6.0 | 12.0 | 0.00 | 0.01 | 0.01 | 80 | 1020.3 |
| 20260902074420 | 63 | 237 | 7.0 | 12.0 | 0.00 | 0.01 | 0.01 | 81 | 1020.3 |
| 20260902073552 | 62 | 227 | 5.0 | 7.0 | 0.00 | 0.01 | 0.01 | 81 | 1020.3 |
| 20260902073053 | 62 | 197 | 4.0 | 10.0 | 0.00 | 0.01 | 0.01 | 81 | 1020.2 |
| 20260902072552 | 62 | 224 | 6.0 | 10.0 | 0.00 | 0.02 | 0.01 | 81 | 1020.2 |
| 20260902072439 | 62 | 210 | 6.0 | 10.0 | 0.00 | 0.02 | 0.01 | 82 | 1020.2 |
| 20260902071553 | 62 | 221 | 6.0 | 10.0 | 0.00 | 0.02 | 0.01 | 82 | 1020.3 |
| 20260902071051 | 61 | 220 | 4.0 | 10.0 | 0.00 | 0.02 | 0.01 | 82 | 1020.3 |
| 20260902070551 | 61 | 210 | 5.0 | 12.0 | 0.00 | 0.02 | 0.01 | 82 | 1020.3 |
| 20260902070105 | 61 | 243 | 7.0 | 12.0 | 0.00 | 0.02 | 0.01 | 83 | 1020.3 |
| 20260902065552 | 60 | 213 | 6.0 | 9.0 | 0.01 | 0.01 | 0.01 | 84 | 1020.2 |
| 20260902065052 | 60 | 220 | 4.0 | 9.0 | 0.01 | 0.01 | 0.01 | 85 | 1020.1 |
| 20260902064938 | 59 | 199 | 5.0 | 10.0 | 0.01 | 0.01 | 0.01 | 85 | 1020.2 |
| 20260902064053 | 59 | 202 | 6.0 | 10.0 | 0.01 | 0.01 | 0.01 | 86 | 1020.1 |
| 20260902063552 | 59 | 224 | 6.0 | 7.0 | 0.01 | 0.01 | 0.01 | 86 | 1020.2 |
| 20260902063054 | 59 | 200 | 6.0 | 7.0 | 0.01 | 0.01 | 0.01 | 88 | 1020.2 |
| 20260902062554 | 58 | 213 | 3.0 | 6.0 | 0.01 | 0.01 | 0.01 | 88 | 1020.2 |
| 20260902062051 | 58 | 219 | 4.0 | 6.0 | 0.01 | 0.01 | 0.01 | 89 | 1020.2 |
| 20260902061552 | 57 | 196 | 4.0 | 5.0 | 0.01 | 0.01 | 0.01 | 89 | 1020.1 |
| 20260902061426 | 0 | 189 | 2.0 | 5.0 | 0.01 | 0.01 | 0.01 | 1020.2 | |
| 20260902060550 | 56 | 227 | 3.0 | 5.0 | 0.01 | 0.01 | 0.01 | 89 | 1020.2 |
| 20260902060454 | 56 | 199 | 3.0 | 5.0 | 0.01 | 0.01 | 0.00 | 89 | 1020.1 |
| 20260902055549 | 56 | 202 | 3.0 | 4.0 | 0.00 | 0.01 | 0.00 | 90 | 1020.1 |
| 20260902055049 | 56 | 214 | 2.0 | 4.0 | 0.00 | 0.01 | 0.00 | 90 | 1020.1 |
| 20260902054933 | 55 | 214 | 3.0 | 4.0 | 0.00 | 0.01 | 0.00 | 90 | 1020.1 |
| 20260902054049 | 55 | 202 | 3.0 | 5.0 | 0.00 | 0.01 | 0.00 | 90 | 1020.0 |
| 20260902053550 | 55 | 199 | 3.0 | 5.0 | 0.00 | 0.01 | 0.00 | 90 | 1019.8 |
| 20260902053050 | 55 | 196 | 3.0 | 5.0 | 0.00 | 0.01 | 0.00 | 90 | 1019.8 |
| 20260902052937 | 55 | 214 | 3.0 | 5.0 | 0.00 | 0.01 | 0.00 | 90 | 1019.9 |
| 20260902052048 | 55 | 212 | 3.0 | 4.0 | 0.00 | 0.01 | 0.00 | 90 | 1019.9 |
| 20260902051549 | 55 | 210 | 2.0 | 4.0 | 0.00 | 0.01 | 0.00 | 90 | 1019.8 |
| 20260902051050 | 54 | 219 | 2.0 | 3.0 | 0.00 | 0.01 | 0.00 | 90 | 1019.9 |
| 20260902050547 | 54 | 223 | 2.0 | 4.0 | 0.00 | 0.01 | 0.00 | 90 | 1019.8 |
| 20260902050456 | 54 | 223 | 2.0 | 4.0 | 0.00 | 0.01 | 0.00 | 90 | 1019.7 |
| 20260902045547 | 54 | 261 | 0.0 | 4.0 | 0.00 | 0.01 | 0.00 | 90 | 1019.7 |
| 20260902045049 | 54 | 269 | 0.0 | 0.0 | 0.00 | 0.01 | 0.00 | 89 | 1019.7 |
| 20260902044548 | 54 | 269 | 0.0 | 0.0 | 0.00 | 0.01 | 0.00 | 89 | 1019.8 |
| 20260902044050 | 54 | 269 | 0.0 | 0.0 | 0.00 | 0.01 | 0.00 | 89 | 1019.8 |
| 20260902043927 | 54 | 269 | 0.0 | 0.0 | 0.00 | 0.01 | 0.00 | 89 | 1019.8 |
| 20260902043047 | 54 | 269 | 0.0 | 0.0 | 0.00 | 0.01 | 0.00 | 89 | 1019.7 |
| 20260902042548 | 54 | 271 | 0.0 | 0.0 | 0.00 | 0.01 | 0.00 | 89 | 1019.7 |
| 20260902042428 | 54 | 271 | 0.0 | 0.0 | 0.00 | 0.01 | 0.00 | 89 | 1019.7 |
| 20260902041927 | 54 | 271 | 0.0 | 0.0 | 0.00 | 0.01 | 0.00 | 89 | 1019.7 |
| 20260902041436 | 54 | 272 | 0.0 | 0.0 | 0.00 | 0.01 | 0.00 | 89 | 1019.7 |
| 20260902040854 | 54 | 271 | 0.0 | 0.0 | 0.00 | 0.01 | 0.00 | 89 | 1019.7 |
| 20260902040731 | 54 | 271 | 0.0 | 0.0 | 0.00 | 0.01 | 0.00 | 89 | 1019.7 |
| 20260902035832 | 55 | 281 | 0.0 | 0.0 | 0.00 | 0.01 | 0.00 | 89 | 1019.7 |
| 20260902035716 | 54 | 272 | 0.0 | 0.0 | 0.00 | 0.01 | 0.00 | 89 | 1019.7 |
| 20260902034548 | 55 | 281 | 0.0 | 0.0 | 0.00 | 0.01 | 0.00 | 89 | 1019.8 |
| 20260902034047 | 55 | 281 | 0.0 | 0.0 | 0.00 | 0.01 | 0.00 | 88 | 1019.8 |
| 20260902033937 | 55 | 281 | 0.0 | 0.0 | 0.00 | 0.01 | 0.00 | 88 | 1019.8 |
| 20260902033047 | 55 | 281 | 0.0 | 0.0 | 0.00 | 0.01 | 0.00 | 88 | 1019.8 |
| 20260902032548 | 55 | 281 | 0.0 | 0.0 | 0.00 | 0.01 | 0.00 | 88 | 1019.9 |
| 20260902032047 | 55 | 281 | 0.0 | 0.0 | 0.00 | 0.01 | 0.00 | 88 | 1019.8 |
| 20260902031547 | 55 | 281 | 0.0 | 0.0 | 0.00 | 0.01 | 0.00 | 88 | 1019.8 |
| 20260902031046 | 55 | 281 | 0.0 | 0.0 | 0.00 | 0.01 | 0.00 | 88 | 1019.9 |
| 20260902030545 | 55 | 281 | 0.0 | 0.0 | 0.00 | 0.01 | 0.00 | 88 | 1019.9 |
| 20260902030058 | 56 | 281 | 0.0 | 0.0 | 0.00 | 0.01 | 0.00 | 88 | 1020.0 |
| 20260902025546 | 56 | 281 | 0.0 | 0.0 | 0.00 | 0.01 | 0.00 | 88 | 1019.9 |
| 20260902025046 | 56 | 281 | 0.0 | 0.0 | 0.00 | 0.01 | 0.00 | 88 | 1020.0 |
| 20260902024544 | 55 | 281 | 0.0 | 1.0 | 0.00 | 0.01 | 0.00 | 88 | 1020.0 |
| 20260902024046 | 55 | 281 | 0.0 | 3.0 | 0.00 | 0.01 | 0.00 | 88 | 1019.9 |
| 20260902023546 | 56 | 281 | 2.0 | 3.0 | 0.00 | 0.01 | 0.00 | 89 | 1020.0 |
| 20260902023046 | 55 | 281 | 2.0 | 3.0 | 0.00 | 0.01 | 0.00 | 89 | 1020.0 |
| 20260902022545 | 55 | 282 | 1.0 | 3.0 | 0.00 | 0.01 | 0.00 | 89 | 1020.1 |
| 20260902022044 | 55 | 282 | 1.0 | 2.0 | 0.00 | 0.01 | 0.00 | 89 | 1020.0 |
| 20260902021545 | 55 | 282 | 1.0 | 2.0 | 0.00 | 0.01 | 0.00 | 88 | 1020.1 |
| 20260902021045 | 55 | 282 | 0.0 | 2.0 | 0.00 | 0.01 | 0.00 | 88 | 1020.1 |
| 20260902020545 | 55 | 282 | 0.0 | 2.0 | 0.00 | 0.01 | 0.00 | 88 | 1020.2 |
| 20260902020058 | 55 | 282 | 0.0 | 1.0 | 0.00 | 0.01 | 0.00 | 88 | 1020.2 |
| 20260902015546 | 55 | 282 | 0.0 | 0.0 | 0.00 | 0.01 | 0.00 | 88 | 1020.2 |
| 20260902015044 | 55 | 282 | 0.0 | 2.0 | 0.00 | 0.01 | 0.00 | 88 | 1020.2 |
| 20260902014934 | 56 | 282 | 0.0 | 2.0 | 0.00 | 0.01 | 0.00 | 88 | 1020.1 |
| 20260902014429 | 56 | 282 | 1.0 | 3.0 | 0.00 | 0.01 | 0.00 | 88 | 1020.2 |
| 20260902013546 | 56 | 282 | 2.0 | 3.0 | 0.00 | 0.01 | 0.00 | 89 | 1020.2 |
| 20260902013427 | 56 | 282 | 2.0 | 3.0 | 0.00 | 0.01 | 0.00 | 88 | 1020.3 |
| 20260902012544 | 56 | 282 | 0.0 | 0.0 | 0.00 | 0.01 | 0.00 | 88 | 1020.2 |
| 20260902012043 | 56 | 282 | 0.0 | 0.0 | 0.00 | 0.01 | 0.00 | 88 | 1020.3 |
| 20260902011557 | 56 | 282 | 0.0 | 0.0 | 0.00 | 0.01 | 0.00 | 88 | 1020.3 |
| 20260902011045 | 56 | 282 | 0.0 | 2.0 | 0.00 | 0.01 | 0.00 | 89 | 1020.2 |
| 20260902010556 | 56 | 282 | 0.0 | 3.0 | 0.00 | 0.01 | 0.00 | 89 | 1020.3 |
| 20260902010056 | 56 | 282 | 2.0 | 3.0 | 0.00 | 0.01 | 0.00 | 89 | 1020.4 |
| 20260902005544 | 56 | 282 | 2.0 | 4.0 | 0.00 | 0.01 | 0.00 | 89 | 1020.3 |
| 20260902005325 | 55 | 283 | 1.0 | 4.0 | 0.00 | 0.01 | 0.00 | 89 | 1020.3 |
| 20260902005208 | 55 | 282 | 3.0 | 4.0 | 0.00 | 0.01 | 0.00 | 89 | 1020.4 |
| 20260902004042 | 55 | 295 | 2.0 | 4.0 | 0.00 | 0.01 | 0.00 | 88 | 1020.4 |
| 20260902003934 | 55 | 310 | 2.0 | 3.0 | 0.00 | 0.01 | 0.00 | 88 | 1020.5 |
| 20260902003426 | 55 | 327 | 0.0 | 0.0 | 0.00 | 0.01 | 0.00 | 87 | 1020.3 |
| 20260902002925 | 55 | 327 | 0.0 | 0.0 | 0.00 | 0.01 | 0.00 | 88 | 1020.3 |
| 20260902002041 | 55 | 327 | 0.0 | 0.0 | 0.00 | 0.01 | 0.00 | 88 | 1020.2 |
| 20260902001542 | 55 | 327 | 0.0 | 0.0 | 0.00 | 0.01 | 0.00 | 88 | 1020.3 |
| 20260902001040 | 55 | 327 | 0.0 | 0.0 | 0.00 | 0.01 | 0.00 | 87 | 1020.3 |
| 20260902000553 | 55 | 327 | 0.0 | 0.0 | 0.00 | 0.01 | 0.00 | 87 | 1020.4 |
| 20260902000055 | 55 | 327 | 0.0 | 0.0 | 0.00 | 0.01 | 0.00 | 87 | 1020.4 |
| 20260901235542 | 55 | 327 | 0.0 | 0.0 | 0.00 | 0.01 | 0.00 | 87 | 1020.4 |
| 20260901235040 | 55 | 327 | 0.0 | 0.0 | 0.00 | 0.01 | 0.00 | 87 | 1020.3 |
| 20260901234541 | 55 | 327 | 0.0 | 0.0 | 0.00 | 0.01 | 0.00 | 87 | 1020.3 |
| 20260901234423 | 55 | 327 | 0.0 | 0.0 | 0.00 | 0.01 | 0.00 | 87 | 1020.5 |
| 20260901233553 | 56 | 327 | 0.0 | 0.0 | 0.00 | 0.01 | 0.00 | 87 | 1020.3 |
| 20260901233039 | 56 | 327 | 0.0 | 0.0 | 0.00 | 0.01 | 0.00 | 87 | 1020.3 |
| 20260901232540 | 56 | 327 | 0.0 | 0.0 | 0.00 | 0.01 | 0.00 | 87 | 1020.4 |
| 20260901232429 | 56 | 327 | 0.0 | 0.0 | 0.00 | 0.01 | 0.00 | 87 | 1020.5 |
| 20260901231540 | 56 | 327 | 0.0 | 0.0 | 0.00 | 0.01 | 0.00 | 86 | 1020.6 |
| 20260901231039 | 56 | 327 | 0.0 | 0.0 | 0.00 | 0.01 | 0.00 | 86 | 1020.6 |
| 20260901230540 | 56 | 327 | 0.0 | 0.0 | 0.00 | 0.01 | 0.00 | 86 | 1020.7 |
| 20260901230052 | 56 | 327 | 0.0 | 0.0 | 0.00 | 0.01 | 0.00 | 86 | 1020.6 |
| 20260901225947 | 56 | 327 | 0.0 | 0.0 | 0.00 | 0.01 | 0.00 | 85 | 1020.6 |
| 20260901225037 | 56 | 327 | 0.0 | 0.0 | 0.00 | 0.01 | 0.00 | 85 | 1020.6 |
| 20260901224540 | 56 | 327 | 0.0 | 0.0 | 0.00 | 0.01 | 0.00 | 85 | 1020.6 |
| 20260901224053 | 57 | 327 | 0.0 | 0.0 | 0.00 | 0.01 | 0.00 | 84 | 1020.6 |
| 20260901223922 | 57 | 327 | 0.0 | 0.0 | 0.00 | 0.01 | 0.00 | 85 | 1020.6 |
| 20260901223038 | 57 | 327 | 0.0 | 0.0 | 0.00 | 0.01 | 0.00 | 84 | 1020.6 |
| 20260901222926 | 57 | 327 | 0.0 | 0.0 | 0.00 | 0.01 | 0.00 | 84 | 1020.7 |
| 20260901222038 | 58 | 327 | 0.0 | 0.0 | 0.00 | 0.01 | 0.00 | 84 | 1020.6 |
| 20260901221538 | 58 | 327 | 0.0 | 0.0 | 0.00 | 0.01 | 0.00 | 84 | 1020.5 |
| 20260901221040 | 58 | 327 | 0.0 | 0.0 | 0.00 | 0.01 | 0.00 | 84 | 1020.4 |
| 20260901220538 | 58 | 327 | 0.0 | 0.0 | 0.00 | 0.01 | 0.00 | 84 | 1020.6 |
| 20260901220051 | 58 | 327 | 0.0 | 0.0 | 0.00 | 0.01 | 0.00 | 84 | 1020.5 |
| 20260901215539 | 58 | 327 | 0.0 | 0.0 | 0.00 | 0.01 | 0.01 | 84 | 1020.6 |
| 20260901215038 | 58 | 329 | 0.0 | 0.0 | 0.00 | 0.01 | 0.01 | 83 | 1020.7 |
| 20260901214927 | 58 | 329 | 0.0 | 0.0 | 0.00 | 0.01 | 0.01 | 83 | 1020.7 |
| 20260901214037 | 59 | 329 | 0.0 | 0.0 | 0.00 | 0.01 | 0.01 | 83 | 1020.5 |
| 20260901213538 | 59 | 329 | 0.0 | 0.0 | 0.00 | 0.01 | 0.01 | 83 | 1020.7 |
| 20260901213037 | 59 | 329 | 0.0 | 0.0 | 0.00 | 0.01 | 0.01 | 83 | 1020.7 |
| 20260901212537 | 59 | 329 | 0.0 | 0.0 | 0.00 | 0.01 | 0.01 | 83 | 1020.7 |
| 20260901212038 | 59 | 329 | 0.0 | 0.0 | 0.00 | 0.01 | 0.01 | 83 | 1021.0 |
| 20260901211536 | 59 | 329 | 0.0 | 0.0 | 0.00 | 0.01 | 0.01 | 84 | 1021.0 |
| 20260901211425 | 59 | 329 | 0.0 | 0.0 | 0.00 | 0.01 | 0.01 | 83 | 1021.1 |
| 20260901210537 | 59 | 329 | 0.0 | 0.0 | 0.00 | 0.01 | 0.01 | 83 | 1021.1 |
| 20260901210051 | 59 | 329 | 0.0 | 0.0 | 0.00 | 0.01 | 0.01 | 82 | 1021.1 |
| 20260901205923 | 59 | 329 | 0.0 | 0.0 | 0.00 | 0.01 | 0.01 | 82 | 1021.1 |
| 20260901205036 | 59 | 329 | 0.0 | 0.0 | 0.00 | 0.01 | 0.01 | 82 | 1021.0 |
| 20260901204957 | 60 | 329 | 0.0 | 0.0 | 0.00 | 0.01 | 0.01 | 81 | 1021.1 |
| 20260901204551 | 59 | 329 | 0.0 | 0.0 | 0.00 | 0.01 | 0.01 | 82 | 1021.1 |
| 20260901204210 | 60 | 329 | 0.0 | 0.0 | 0.00 | 0.01 | 0.01 | 82 | 1020.9 |
| 20260901204120 | 60 | 329 | 0.0 | 0.0 | 0.00 | 0.01 | 0.01 | 82 | 1021.1 |
| 20260901202532 | 60 | 329 | 0.0 | 4.0 | 0.00 | 0.01 | 0.01 | 81 | 1021.0 |
| 20260901202033 | 60 | 329 | 0.0 | 4.0 | 0.00 | 0.01 | 0.01 | 80 | 1021.0 |
| 20260901201531 | 60 | 329 | 0.0 | 2.0 | 0.00 | 0.01 | 0.01 | 80 | 1021.0 |
| 20260901201032 | 60 | 329 | 0.0 | 3.0 | 0.00 | 0.01 | 0.01 | 79 | 1021.0 |
| 20260901200531 | 61 | 327 | 0.0 | 4.0 | 0.00 | 0.01 | 0.01 | 79 | 1021.0 |
| 20260901200031 | 61 | 326 | 2.0 | 4.0 | 0.00 | 0.01 | 0.01 | 79 | 1021.0 |
| 20260901195534 | 61 | 321 | 3.0 | 4.0 | 0.00 | 0.01 | 0.01 | 79 | 1020.9 |
| 20260901195032 | 61 | 323 | 2.0 | 4.0 | 0.00 | 0.01 | 0.01 | 79 | 1020.9 |
| 20260901194534 | 61 | 329 | 2.0 | 3.0 | 0.00 | 0.01 | 0.01 | 79 | 1020.9 |
| 20260901194031 | 61 | 330 | 2.0 | 4.0 | 0.00 | 0.01 | 0.01 | 78 | 1020.9 |
| 20260901193532 | 61 | 336 | 2.0 | 4.0 | 0.00 | 0.01 | 0.01 | 78 | 1020.8 |
| 20260901193419 | 61 | 336 | 1.0 | 3.0 | 0.00 | 0.01 | 0.01 | 77 | 1020.7 |
| 20260901192532 | 62 | 334 | 0.0 | 0.0 | 0.00 | 0.01 | 0.01 | 77 | 1020.5 |
| 20260901192031 | 62 | 334 | 0.0 | 0.0 | 0.00 | 0.01 | 0.01 | 76 | 1020.5 |
| 20260901191532 | 62 | 333 | 0.0 | 4.0 | 0.00 | 0.01 | 0.01 | 76 | 1020.6 |
| 20260901191032 | 62 | 333 | 1.0 | 5.0 | 0.00 | 0.01 | 0.01 | 75 | 1020.6 |
| 20260901190531 | 62 | 336 | 2.0 | 5.0 | 0.00 | 0.01 | 0.01 | 74 | 1020.7 |
| 20260901190046 | 63 | 341 | 3.0 | 5.0 | 0.00 | 0.01 | 0.01 | 74 | 1020.6 |
| 20260901185533 | 63 | 340 | 2.0 | 6.0 | 0.00 | 0.01 | 0.01 | 73 | 1020.5 |
| 20260901185422 | 63 | 348 | 3.0 | 6.0 | 0.00 | 0.01 | 0.01 | 73 | 1020.5 |
| 20260901184533 | 64 | 321 | 3.0 | 6.0 | 0.00 | 0.01 | 0.01 | 72 | 1020.6 |
| 20260901184033 | 64 | 331 | 1.0 | 4.0 | 0.00 | 0.01 | 0.01 | 72 | 1020.3 |
| 20260901183533 | 64 | 333 | 0.0 | 0.0 | 0.00 | 0.01 | 0.01 | 71 | 1020.3 |
| 20260901183417 | 65 | 331 | 0.0 | 3.0 | 0.00 | 0.01 | 0.01 | 70 | 1020.4 |
| 20260901182532 | 65 | 330 | 0.0 | 4.0 | 0.00 | 0.01 | 0.01 | 69 | 1020.5 |
| 20260901182417 | 65 | 323 | 0.0 | 6.0 | 0.00 | 0.01 | 0.01 | 68 | 1020.5 |
| 20260901181531 | 66 | 348 | 4.0 | 6.0 | 0.00 | 0.01 | 0.01 | 67 | 1020.5 |
| 20260901181030 | 66 | 331 | 3.0 | 6.0 | 0.00 | 0.01 | 0.01 | 68 | 1020.5 |
| 20260901180533 | 66 | 343 | 1.0 | 6.0 | 0.00 | 0.01 | 0.01 | 67 | 1020.4 |
| 20260901180031 | 66 | 336 | 2.0 | 6.0 | 0.00 | 0.01 | 0.01 | 67 | 1020.4 |
| 20260901175530 | 66 | 345 | 4.0 | 7.0 | 0.00 | 0.01 | 0.01 | 66 | 1020.5 |
| 20260901175033 | 67 | 326 | 3.0 | 7.0 | 0.00 | 0.01 | 0.01 | 66 | 1020.4 |
| 20260901174531 | 67 | 351 | 5.0 | 7.0 | 0.00 | 0.01 | 0.01 | 66 | 1020.5 |
| 20260901174043 | 67 | 340 | 3.0 | 7.0 | 0.00 | 0.01 | 0.01 | 67 | 1020.5 |
| 20260901173913 | 67 | 314 | 2.0 | 6.0 | 0.00 | 0.01 | 0.01 | 66 | 1020.6 |
| 20260901173031 | 67 | 313 | 2.0 | 7.0 | 0.00 | 0.01 | 0.01 | 64 | 1020.6 |
| 20260901172530 | 67 | 305 | 2.0 | 7.0 | 0.00 | 0.01 | 0.01 | 64 | 1020.5 |
| 20260901172031 | 68 | 348 | 3.0 | 6.0 | 0.00 | 0.01 | 0.01 | 64 | 1020.4 |
| 20260901171529 | 68 | 298 | 2.0 | 6.0 | 0.00 | 0.01 | 0.01 | 63 | 1020.4 |
| 20260901171029 | 69 | 312 | 3.0 | 6.0 | 0.00 | 0.01 | 0.01 | 63 | 1020.5 |
| 20260901170529 | 69 | 296 | 3.0 | 6.0 | 0.00 | 0.01 | 0.01 | 62 | 1020.6 |
| 20260901170032 | 69 | 289 | 3.0 | 7.0 | 0.00 | 0.01 | 0.01 | 63 | 1020.5 |
| 20260901165530 | 69 | 289 | 1.0 | 9.0 | 0.00 | 0.01 | 0.01 | 62 | 1020.4 |
| 20260901165030 | 69 | 265 | 4.0 | 9.0 | 0.00 | 0.01 | 0.01 | 62 | 1020.4 |
| 20260901164530 | 69 | 343 | 4.0 | 9.0 | 0.00 | 0.01 | 0.01 | 61 | 1020.5 |